When you browse on this site, cookies collect data to enhance your experience and personalize the content and advertising you see.
Visit our Privacy Policy to learn more. By continuing to use the site, you agree to this use of cookies and data.
  • In Schweiz
  • Länderverzeichnis
  • Für 7 Tage
  • Wassertemperatur
  • Satellitenkarten
  • Wetterkarte
  • Widgets
  • user-avatar
    Anmelden

    Stündliche Wetter Bereznyagi

    Heute, 16 November, Freitag

    Zeit Temperatur Niederschläge Wind Luftdruck Luftfeuchtigkeit
    00:00 -4°C° 0 mm 2 m/S 765 mmHg 29%
    01:00 -5°C° 0 mm 2 m/S 765 mmHg 29%
    02:00 -5°C° 0 mm 2 m/S 766 mmHg 28%
    03:00 -3°C° 0 mm 1 m/S 766 mmHg 29%
    04:00 -3°C° 0 mm 1 m/S 766 mmHg 29%
    05:00 -6°C° 0 mm 2 m/S 766 mmHg 29%
    06:00 -6°C° 0 mm 2 m/S 767 mmHg 29%
    07:00 -6°C° 0 mm 2 m/S 767 mmHg 28%
    08:00 -5°C° 0 mm 2 m/S 767 mmHg 27%
    09:00 -3°C° 0 mm 1 m/S 767 mmHg 26%
    10:00 -2°C° 0 mm 1 m/S 768 mmHg 24%
    11:00 -1°C° 0 mm 1 m/S 768 mmHg 22%
    12:00 0°C° 0 mm 1 m/S 768 mmHg 19%
    13:00 0°C° 0 mm 1 m/S 768 mmHg 20%
    14:00 0°C° 0 mm 1 m/S 768 mmHg 20%
    15:00 +1°C° 0 mm 1 m/S 767 mmHg 21%
    16:00 0°C° 0 mm 1 m/S 768 mmHg 21%
    17:00 -1°C° 0 mm 1 m/S 768 mmHg 22%
    18:00 -1°C° 0 mm 1 m/S 768 mmHg 22%
    19:00 -2°C° 0 mm 1 m/S 768 mmHg 22%
    20:00 -2°C° 0 mm 1 m/S 768 mmHg 22%
    21:00 -2°C° 0 mm 1 m/S 767 mmHg 22%
    22:00 -2°C° 0 mm 1 m/S 767 mmHg 21%
    23:00 -2°C° 0 mm 1 m/S 767 mmHg 21%

    Morgen, 17 November, Samstag

    Zeit Temperatur Niederschläge Wind Luftdruck Luftfeuchtigkeit
    00:00 -3°C° 0 mm 0 m/S 767 mmHg 21%
    01:00 -3°C° 0 mm 0 m/S 767 mmHg 21%
    02:00 -2°C° 0 mm 1 m/S 767 mmHg 20%
    03:00 -2°C° 0 mm 1 m/S 766 mmHg 20%
    04:00 -2°C° 0 mm 1 m/S 766 mmHg 20%
    05:00 -2°C° 0 mm 1 m/S 766 mmHg 20%
    06:00 -2°C° 0 mm 1 m/S 765 mmHg 20%
    07:00 -2°C° 0 mm 1 m/S 765 mmHg 20%
    08:00 -4°C° 0 mm 2 m/S 765 mmHg 19%
    09:00 -4°C° 0 mm 2 m/S 765 mmHg 19%
    10:00 -3°C° 0 mm 2 m/S 764 mmHg 18%
    11:00 -1°C° 0 mm 2 m/S 764 mmHg 17%
    12:00 0°C° 0 mm 3 m/S 763 mmHg 17%
    13:00 0°C° 0 mm 3 m/S 762 mmHg 18%
    14:00 0°C° 0 mm 3 m/S 762 mmHg 19%
    15:00 -1°C° 0 mm 4 m/S 761 mmHg 20%
    16:00 -2°C° 0 mm 4 m/S 760 mmHg 21%
    17:00 -2°C° 0 mm 4 m/S 759 mmHg 23%
    18:00 -3°C° 0 mm 4 m/S 759 mmHg 24%
    19:00 -3°C° 0 mm 4 m/S 758 mmHg 25%
    20:00 -3°C° 0 mm 4 m/S 757 mmHg 25%
    21:00 -4°C° 0 mm 5 m/S 756 mmHg 26%
    22:00 -4°C° 0 mm 5 m/S 756 mmHg 27%
    23:00 -2°C° 0 mm 5 m/S 755 mmHg 28%

    übermorgen, 18 November, Sonntag

    Zeit Temperatur Niederschläge Wind Luftdruck Luftfeuchtigkeit
    00:00 -2°C° 0 mm 5 m/S 754 mmHg 29%
    01:00 -2°C° 0.1 mm 5 m/S 754 mmHg 37%
    02:00 -4°C° 0.1 mm 5 m/S 753 mmHg 45%
    03:00 -4°C° 0.1 mm 5 m/S 752 mmHg 53%
    04:00 -4°C° 0.1 mm 5 m/S 751 mmHg 57%
    05:00 -4°C° 0.1 mm 5 m/S 751 mmHg 60%
    06:00 -4°C° 0.1 mm 5 m/S 750 mmHg 64%
    07:00 -3°C° 0.1 mm 4 m/S 749 mmHg 64%
    08:00 -3°C° 0.1 mm 4 m/S 749 mmHg 65%
    09:00 -3°C° 0.1 mm 4 m/S 749 mmHg 65%
    10:00 -3°C° 0 mm 4 m/S 749 mmHg 68%
    11:00 -2°C° 0 mm 4 m/S 748 mmHg 71%
    12:00 -2°C° 0 mm 4 m/S 748 mmHg 74%
    13:00 -1°C° 0 mm 3 m/S 748 mmHg 76%
    14:00 -1°C° 0 mm 3 m/S 748 mmHg 77%
    15:00 -1°C° 0 mm 3 m/S 748 mmHg 79%
    16:00 -1°C° 0 mm 3 m/S 748 mmHg 81%
    17:00 -1°C° 0 mm 2 m/S 748 mmHg 83%
    18:00 -2°C° 0 mm 2 m/S 748 mmHg 85%
    19:00 -2°C° 0 mm 2 m/S 748 mmHg 86%
    20:00 -2°C° 0 mm 2 m/S 749 mmHg 87%
    21:00 -2°C° 0 mm 2 m/S 749 mmHg 88%
    22:00 -2°C° 0 mm 2 m/S 749 mmHg 88%
    23:00 0°C° 0 mm 1 m/S 749 mmHg 89%

    19 November, Montag

    Zeit Temperatur Niederschläge Wind Luftdruck Luftfeuchtigkeit
    00:00 0°C° 0 mm 1 m/S 750 mmHg 89%
    01:00 0°C° 0 mm 1 m/S 750 mmHg 90%
    02:00 0°C° 0 mm 1 m/S 750 mmHg 90%
    03:00 0°C° 0 mm 1 m/S 751 mmHg 91%
    04:00 0°C° 0 mm 1 m/S 751 mmHg 91%
    05:00 0°C° 0 mm 1 m/S 751 mmHg 91%
    06:00 0°C° 0 mm 1 m/S 752 mmHg 91%
    07:00 -2°C° 0 mm 2 m/S 752 mmHg 89%
    08:00 -2°C° 0 mm 2 m/S 753 mmHg 87%
    09:00 -2°C° 0 mm 2 m/S 753 mmHg 85%
    10:00 -2°C° 0 mm 2 m/S 754 mmHg 78%
    11:00 -1°C° 0 mm 2 m/S 754 mmHg 71%
    12:00 -1°C° 0 mm 2 m/S 755 mmHg 65%
    13:00 -1°C° 0 mm 2 m/S 755 mmHg 63%
    14:00 -1°C° 0 mm 2 m/S 756 mmHg 62%
    15:00 -1°C° 0 mm 2 m/S 756 mmHg 60%
    16:00 -2°C° 0 mm 2 m/S 756 mmHg 61%
    17:00 -3°C° 0 mm 2 m/S 757 mmHg 62%
    18:00 -4°C° 0 mm 3 m/S 757 mmHg 63%
    19:00 -4°C° 0 mm 3 m/S 757 mmHg 62%
    20:00 -4°C° 0 mm 3 m/S 758 mmHg 61%
    21:00 -4°C° 0 mm 3 m/S 758 mmHg 60%
    22:00 -3°C° 0 mm 2 m/S 758 mmHg 60%
    23:00 -3°C° 0 mm 2 m/S 759 mmHg 59%

    20 November, Dienstag

    Zeit Temperatur Niederschläge Wind Luftdruck Luftfeuchtigkeit
    00:00 -3°C° 0 mm 2 m/S 759 mmHg 59%
    01:00 -4°C° 0 mm 2 m/S 759 mmHg 58%
    02:00 -5°C° 0 mm 3 m/S 759 mmHg 58%
    03:00 -5°C° 0 mm 3 m/S 759 mmHg 58%
    04:00 -5°C° 0 mm 3 m/S 759 mmHg 57%
    05:00 -5°C° 0 mm 3 m/S 759 mmHg 56%
    06:00 -5°C° 0 mm 3 m/S 759 mmHg 55%
    07:00 -5°C° 0 mm 3 m/S 759 mmHg 54%
    08:00 -5°C° 0 mm 3 m/S 759 mmHg 53%
    09:00 -5°C° 0 mm 3 m/S 759 mmHg 52%
    10:00 -4°C° 0 mm 3 m/S 759 mmHg 49%
    11:00 -2°C° 0 mm 3 m/S 759 mmHg 46%
    12:00 -2°C° 0 mm 3 m/S 759 mmHg 43%
    13:00 -2°C° 0 mm 3 m/S 759 mmHg 44%
    14:00 -2°C° 0 mm 3 m/S 758 mmHg 45%
    15:00 -2°C° 0 mm 3 m/S 758 mmHg 46%
    16:00 -2°C° 0 mm 3 m/S 758 mmHg 47%
    17:00 -2°C° 0 mm 3 m/S 757 mmHg 48%
    18:00 -4°C° 0 mm 3 m/S 757 mmHg 49%
    19:00 -4°C° 0 mm 3 m/S 757 mmHg 50%
    20:00 -4°C° 0 mm 3 m/S 756 mmHg 52%
    21:00 -4°C° 0 mm 3 m/S 756 mmHg 53%
    22:00 -4°C° 0 mm 3 m/S 756 mmHg 56%
    23:00 -4°C° 0 mm 3 m/S 756 mmHg 58%

    21 November, Mittwoch

    Zeit Temperatur Niederschläge Wind Luftdruck Luftfeuchtigkeit
    00:00 -4°C° 0 mm 3 m/S 755 mmHg 61%
    01:00 -4°C° 0.1 mm 3 m/S 755 mmHg 65%
    02:00 -4°C° 0.1 mm 3 m/S 755 mmHg 70%
    03:00 -4°C° 0.1 mm 3 m/S 754 mmHg 75%
    04:00 -4°C° 0.1 mm 3 m/S 754 mmHg 78%
    05:00 -4°C° 0.1 mm 3 m/S 754 mmHg 81%
    06:00 -5°C° 0.1 mm 3 m/S 753 mmHg 84%
    07:00 -3°C° 0 mm 2 m/S 753 mmHg 85%
    08:00 -3°C° 0 mm 2 m/S 753 mmHg 86%
    09:00 -3°C° 0 mm 2 m/S 753 mmHg 87%
    10:00 -3°C° 0 mm 2 m/S 753 mmHg 86%
    11:00 -3°C° 0 mm 2 m/S 752 mmHg 85%
    12:00 -2°C° 0 mm 2 m/S 752 mmHg 84%
    13:00 -2°C° 0 mm 2 m/S 752 mmHg 84%
    14:00 -2°C° 0 mm 2 m/S 751 mmHg 84%
    15:00 -2°C° 0 mm 2 m/S 751 mmHg 84%
    16:00 -2°C° 0 mm 2 m/S 751 mmHg 85%
    17:00 -3°C° 0 mm 2 m/S 751 mmHg 87%
    18:00 -3°C° 0 mm 2 m/S 750 mmHg 88%
    19:00 -3°C° 0 mm 2 m/S 750 mmHg 87%
    20:00 -4°C° 0 mm 2 m/S 750 mmHg 86%
    21:00 -4°C° 0 mm 2 m/S 750 mmHg 85%
    22:00 -4°C° 0 mm 2 m/S 749 mmHg 83%
    23:00 -4°C° 0 mm 2 m/S 749 mmHg 82%
    Mehr zeigen